Вернуться в каталог

ISIS 1

АктивенНаукаPO
NORAD 3669·PAYLOAD·🇨🇦 Canada

Запущен Jan 30, 1969 с Vandenberg Space Force Base

Loading…

Ближайшие Пролёты (ближайшие 24 часа)

TLE

СвежийSource: Space-Track

Эпоха: Sep 14, 2026, 09:55 UTC

1 03669U 69009A   26257.41347614  .00000168  00000-0  10374-3 0  9993
2 03669  88.4396 134.6037 1707945  68.1195 309.2329 11.30448969369855

Отслеживайте ISIS 1 в реальном времени с AllMySat

Download on the App Store